MUOS-4

Last updated on Thu Oct 30 2025 00:02:50 GMT+0000 (Coordinated Universal Time)

1 40887U 15044A 25302.41448406 -.00000082 00000+0 00000+0 0 9993 2 40887 3.9021 40.3452 0051516 0.8455 221.0763 1.00272098 37248
UTC large
Height (km)
Speed (km/s)
/
Latitude / Longitude
Inclination (degrees)
Orbital Period (minutes)
Azimuth
Elevation
Range (km)
Doppler Factor

Next 0 passes for location: London (51.5072 / 0.1276)

Sorry there are no passes over London.